Regional Weather Roundup
Issued by NWS Kansas City/Pleasant Hill, MO

Home | Current Version | Previous Version | Graphics & Text | Print | Product List | Glossary Off
Versions: 1 2 3 4 5 6 7 8 9 10 11 12 13 14 15 16 17 18 19 20 21 22 23 24 25 26 27 28 29 30 31 32 33 34 35 36 37 38 39 40 41 42 43 44 45 46 47 48 49 50

000
ASUS43 KEAX 290610
RWREAX

WEATHER ROUNDUP FOR EASTERN KANSAS AND NORTHWEST MISSOURI
NATIONAL WEATHER SERVICE KANSAS CITY/PLEASANT HILL MO
100 AM CDT SAT AUG 29 2015

KSZ040-057-103>105-MOZ028-029-037-043-290700-
...KANSAS CITY METROPOLITAN AREA...

CITY           SKY/WX    TMP DP  RH WIND       PRES   REMARKS
K.C. INTL      CLOUDY    70  68  93 CALM      29.94R
6HR MIN TEMP:  70; 6HR MAX TEMP:  76; 6HR PCP: TRACE;

K.C. DOWNTOWN  CLOUDY    73  69  87 S6        29.93R
6HR MIN TEMP:  72; 6HR MAX TEMP:  77; 6HR PCP:  0.05;

LEES SUMMIT    CLOUDY    71  68  90 S6        29.95S
6HR MIN TEMP:  71; 6HR MAX TEMP:  74; 6HR PCP:  0.07;

OLATHE - IXD   FAIR      70  68  93 S8        29.95R
6HR MIN TEMP:  70; 6HR MAX TEMP:  73;

OLATHE - OJC   MOCLDY    70  68  93 S7        29.94R
6HR MIN TEMP:  70; 6HR MAX TEMP:  72; 6HR PCP:  0.03;

LAWRENCE       CLOUDY    68  66  93 CALM      29.94S

$$

MOZ001>008-011>017-020>025-030>033-038>040-044>046-053-054-290700-
...NORTHERN AND CENTRAL MISSOURI...

CITY           SKY/WX    TMP DP  RH WIND       PRES   REMARKS
ST. JOSEPH     CLOUDY    71  68  90 NW5       29.93R
6HR MIN TEMP:  71; 6HR MAX TEMP:  77; 6HR PCP: TRACE;

MOSBY          CLOUDY    72  68  88 CALM      29.94S
WARRENSBURG    MOCLDY    70  64  83 SE5       29.95S
WHITEMAN AFB   FAIR      69  64  85 S5        29.95S HAZE
6HR MIN TEMP:  69; 6HR MAX TEMP:  74;

CLINTON          N/A     72  66  83 CALM      29.97R
SEDALIA        FAIR      69  63  81 S8        29.99R
6HR MIN TEMP:  69; 6HR MAX TEMP:  74; 6HR PCP: TRACE;

WARSAW         NOT AVBL
CHILLICOTHE      N/A     70  68  93 S5        29.95F
6HR MIN TEMP:  70; 6HR MAX TEMP:  73; 6HR PCP:  0.02;

KIRKSVILLE     FAIR      68  63  84 S8        29.96S
6HR MIN TEMP:  67; 6HR MAX TEMP:  71; 6HR PCP: TRACE;


$$

MOZ041-047>049-056>058-063>065-088>090-097-290700-
...EASTERN AND SOUTHERN MISSOURI...

CITY           SKY/WX    TMP DP  RH WIND       PRES   REMARKS
ST. LOUIS INTL CLOUDY    75  61  61 S6        30.03S
6HR MIN TEMP:  75; 6HR MAX TEMP:  79;

SPIRIT OF STL  FAIR      72  62  71 CALM      30.01S
COLUMBIA       CLOUDY    69  64  84 S5        30.00R
JEFFERSON CITY CLOUDY    72  61  68 E6        29.98S
ROLLA          FAIR      70  60  70 S14       30.01R
OSAGE BEACH    FAIR      72  59  64 S6        29.99F
SPRINGFIELD    CLOUDY    72  61  68 S12       30.00F
BRANSON        CLOUDY    72  59  64 CALM      30.05S
JOPLIN         FAIR      73  63  70 S12       29.97F
WEST PLAINS    FAIR      70  61  73 S3        30.06S

$$

IAZ060-094-KSZ022-034>040-054-083-096-NEZ052-066-093-290700-
...KANSAS...SOUTHEAST NEBRASKA AND IOWA...

CITY           SKY/WX    TMP DP  RH WIND       PRES   REMARKS
TOPEKA         MOCLDY    71  70  96 NW7       29.95R
6HR MIN TEMP:  71; 6HR MAX TEMP:  77; 6HR PCP:  0.12;

MANHATTAN      MOCLDY    69  65  86 NW3       29.98R
EMPORIA        FAIR      71  68  90 NW6       29.97R
CHANUTE        FAIR      71  68  90 S8        29.96S
WICHITA        FAIR      74  67  78 N7        29.99R
OMAHA          CLOUDY    64  62  93 N10       29.97R
LINCOLN        CLOUDY    65  60  84 N9        29.99S
FALLS CITY     CLOUDY    67  65  93 NW7       29.95R
LAMONI         CLOUDY    71  67  87 S6        29.93S
DES MOINES     CLOUDY    71  67  87 S8        29.90F

$$




USA.gov is the U.S. government's official web portal to all federal, state and local government web resources and services.